Location: ?????
(31.8092°N, 35.2590°E)
Time: 14:53:46
(UTC+00:00)

IDEFIX/ARIANE 42P - Pass Details

Date: 20 June 2021
Orbit: 784 x 803 km, 98.4° (Epoch: 03 August)

Event Time Altitude Azimuth Distance (km) Brightness Sun altitude
Rises 23:34:29 0° 24° (NNE) 3,301 7.0 -28.4°
Reaches altitude 10° 23:37:02 10° 33° (NNE) 2,364 6.0 -28.1°
Maximum altitude 23:41:45 34° 98° (E) 1,274 3.7 -27.6°
Enters shadow 23:42:44 32° 121° (ESE) 1,338 3.7 -27.5°
